Weather History for Augusta Bush, GA

Change the Weather History Date:

Wednesday, March 13, 2013

  Actual Average Record
Temperature  
Mean Temperature 54 °F 55 °F  
Max Temperature 64 °F 69 °F 87 °F (1990)
Min Temperature 43 °F 42 °F 20 °F (1998)
Degree Days  
Heating Degree Days 11 10  
Month to date heating degree days 209 149  
Since 1 July heating degree days 2013 2181  
Cooling Degree Days 0 0  
Month to date cooling degree days 0 0  
Year to date cooling degree days 15 3  
Growing Degree Days 4 (Base 50)    
Moisture  
Dew Point 26 °F    
Average Humidity 38    
Maximum Humidity 58    
Minimum Humidity 17    
Precipitation  
Precipitation 0.00 in 0.14 in 1.57 in (1884)
Month to date precipitation 0.45 1.87  
Year to date precipitation 10.45 9.70  
Sea Level Pressure  
Sea Level Pressure 30.10 in    
Wind  
Wind Speed 13 mph (WNW)    
Max Wind Speed 28 mph    
Max Gust Speed 35 mph    
Visibility 10 miles    
Events      
T = Trace of Precipitation, MM = Missing Value Source: NWS Daily Summary

Daily Weather History Graph

Daily Weather History Graph

Search for Another Location

Airport:

Trip Planner

Search our weather history database for the weather conditions in past years. The results will help you decide how hot, cold, wet, or windy it might be!

Date:

Astronomy

Mar. 13, 2013 Rise Set
Actual Time 7:40 AM EDT 7:34 PM EDT
Civil Twilight 7:15 AM EDT 7:59 PM EDT
Nautical Twilight 6:47 AM EDT 8:27 PM EDT
Astronomical Twilight 6:18 AM EDT 8:56 PM EDT
Moon 8:27 AM EDT (3/13) 9:40 PM EDT (3/13)
Length of Visible Light 12h 43m
Length of Day
11h 53m
Waxing Crescent, 4% of the Moon is Illuminated
Mar 13
Waxing Crescent
Mar 19
First Quarter
Mar 27
Full
Apr 3
Last Quarter
Apr 10
New

Hourly Weather History & Observations

Time (EDT) Temp. Windchill Dew Point Humidity Pressure Visibility Wind Dir Wind Speed Gust Speed Precip Events Conditions
12:53 AM 52.0 °F - 30.9 °F 45% 30.04 in 10.0 mi WNW 11.5 mph - N/A   Clear
1:53 AM 50.0 °F - 30.0 °F 46% 30.05 in 10.0 mi NW 10.4 mph - N/A   Clear
2:53 AM 46.9 °F - 30.9 °F 54% 30.06 in 10.0 mi NNW 6.9 mph - N/A   Clear
3:53 AM 46.0 °F 42.5 °F 30.9 °F 56% 30.06 in 10.0 mi NW 6.9 mph - N/A   Clear
4:53 AM 45.0 °F 41.8 °F 30.0 °F 56% 30.07 in 10.0 mi WNW 5.8 mph - N/A   Clear
5:53 AM 45.0 °F 40.6 °F 30.0 °F 56% 30.09 in 10.0 mi NW 8.1 mph - N/A   Clear
6:53 AM 44.1 °F 40.1 °F 30.0 °F 58% 30.12 in 10.0 mi NW 6.9 mph - N/A   Clear
7:53 AM 44.1 °F 40.1 °F 30.9 °F 60% 30.13 in 10.0 mi WNW 6.9 mph - N/A   Clear
8:53 AM 48.9 °F - 30.9 °F 50% 30.15 in 10.0 mi NW 5.8 mph - N/A   Clear
9:53 AM 54.0 °F - 30.9 °F 41% 30.16 in 10.0 mi WNW 8.1 mph - N/A   Clear
10:53 AM 57.9 °F - 26.1 °F 30% 30.17 in 10.0 mi NW 9.2 mph - N/A   Clear
11:53 AM 60.1 °F - 25.0 °F 26% 30.15 in 10.0 mi NW 13.8 mph 23.0 mph N/A   Clear
12:53 PM 60.1 °F - 25.0 °F 26% 30.13 in 10.0 mi West 19.6 mph 29.9 mph N/A   Clear
1:41 PM 60.8 °F - 26.6 °F 27% 30.10 in 10.0 mi West 12.7 mph 25.3 mph N/A   Partly Cloudy
1:53 PM 62.1 °F - 26.1 °F 25% 30.10 in 10.0 mi West 16.1 mph 27.6 mph N/A   Clear
2:53 PM 63.0 °F - 23.0 °F 22% 30.06 in 10.0 mi WNW 19.6 mph 28.8 mph N/A   Clear
3:53 PM 63.0 °F - 23.0 °F 22% 30.04 in 10.0 mi West 13.8 mph 29.9 mph N/A   Clear
4:53 PM 63.0 °F - 17.1 °F 17% 30.04 in 10.0 mi WNW 24.2 mph 33.4 mph N/A   Clear
5:53 PM 61.0 °F - 19.9 °F 21% 30.05 in 10.0 mi WNW 20.7 mph 33.4 mph N/A   Clear
6:53 PM 59.0 °F - 19.9 °F 22% 30.06 in 10.0 mi WNW 17.3 mph 32.2 mph N/A   Clear
7:53 PM 55.0 °F - 21.9 °F 28% 30.10 in 10.0 mi NW 13.8 mph - N/A   Clear
8:53 PM 53.1 °F - 21.0 °F 29% 30.12 in 10.0 mi NW 13.8 mph - N/A   Clear
9:53 PM 51.1 °F - 21.0 °F 31% 30.14 in 10.0 mi NW 16.1 mph - N/A   Clear
10:53 PM 48.0 °F - 21.0 °F 34% 30.17 in 10.0 mi NW 19.6 mph 25.3 mph N/A   Clear
11:53 PM 46.0 °F 41.0 °F 19.9 °F 35% 30.20 in 10.0 mi NW 10.4 mph - N/A   Clear